Time,TemperatureF,DewpointF,PressureIn,WindDirection,WindDirectionDegrees,WindSpeedMPH,WindSpeedGustMPH,Humidity,HourlyPrecipIn,Conditions,Clouds,dailyrainin,SoftwareType,DateUTC
2013-06-15 00:02:00,77.0,72.0,29.93,North,0,0.0,0.0,84,0.00,,,0.00,,2013-06-15 05:02:00,
2013-06-15 00:12:00,77.0,72.0,29.93,North,0,0.0,0.0,84,0.00,,,0.00,,2013-06-15 05:12:00,
2013-06-15 00:22:00,77.0,72.0,29.93,North,0,0.0,0.0,84,0.00,,,0.00,,2013-06-15 05:22:00,
2013-06-15 01:33:00,77.0,72.0,29.92,North,0,0.0,0.0,85,0.00,,,0.00,,2013-06-15 06:33:00,
2013-06-15 01:43:00,77.0,72.0,29.92,North,0,0.0,0.0,85,0.00,,,0.00,,2013-06-15 06:43:00,
2013-06-15 01:53:00,77.0,72.0,29.92,North,0,0.0,0.0,85,0.00,,,0.00,,2013-06-15 06:53:00,
2013-06-15 02:01:00,77.0,72.0,29.92,North,0,0.0,0.0,85,0.00,,,0.00,,2013-06-15 07:01:00,
2013-06-15 02:10:00,76.0,72.0,29.93,North,0,0.0,0.0,87,0.00,,,0.00,,2013-06-15 07:10:00,
2013-06-15 02:11:00,77.0,72.0,29.92,North,0,0.0,0.0,85,0.00,,,0.00,,2013-06-15 07:11:00,
2013-06-15 02:33:00,76.0,72.0,29.93,North,0,0.0,0.0,87,0.00,,,0.00,,2013-06-15 07:33:00,
2013-06-15 02:43:00,76.0,72.0,29.93,North,0,0.0,0.0,87,0.00,,,0.00,,2013-06-15 07:43:00,
2013-06-15 02:53:00,76.0,72.0,29.93,North,0,0.0,0.0,87,0.00,,,0.00,,2013-06-15 07:53:00,
2013-06-15 03:02:00,76.0,72.0,29.93,North,0,0.0,0.0,87,0.00,,,0.00,,2013-06-15 08:02:00,
2013-06-15 04:02:00,75.0,71.0,29.92,North,0,0.0,0.0,88,0.00,,,0.00,,2013-06-15 09:02:00,
2013-06-15 04:12:00,75.0,71.0,29.92,North,0,0.0,0.0,88,0.00,,,0.00,,2013-06-15 09:12:00,
2013-06-15 04:22:00,75.0,71.0,29.92,North,0,0.0,0.0,88,0.00,,,0.00,,2013-06-15 09:22:00,
2013-06-15 04:33:00,75.0,71.0,29.92,North,0,0.0,0.0,88,0.00,,,0.00,,2013-06-15 09:33:00,
2013-06-15 04:43:00,75.0,71.0,29.92,North,0,0.0,0.0,88,0.00,,,0.00,,2013-06-15 09:43:00,
2013-06-15 05:44:00,75.0,72.0,29.91,North,0,0.0,0.0,89,0.00,,,0.00,,2013-06-15 10:44:00,
2013-06-15 05:53:00,75.0,72.0,29.91,North,0,0.0,0.0,89,0.00,,,0.00,,2013-06-15 10:53:00,
2013-06-15 06:02:00,75.0,72.0,29.91,North,0,0.0,0.0,89,0.00,,,0.00,,2013-06-15 11:02:00,
2013-06-15 06:11:00,75.0,72.0,29.91,North,0,0.0,0.0,89,0.00,,,0.00,,2013-06-15 11:11:00,
2013-06-15 06:22:00,75.0,72.0,29.91,North,0,0.0,0.0,89,0.00,,,0.00,,2013-06-15 11:22:00,
2013-06-15 06:43:00,74.0,71.0,29.92,North,0,0.0,0.0,89,0.00,,,0.00,,2013-06-15 11:43:00,
2013-06-15 06:53:00,74.0,71.0,29.92,North,0,0.0,0.0,89,0.00,,,0.00,,2013-06-15 11:53:00,
2013-06-15 07:01:00,74.0,71.0,29.92,North,0,0.0,0.0,89,0.00,,,0.00,,2013-06-15 12:01:00,
2013-06-15 07:11:00,74.0,71.0,29.92,North,0,0.0,0.0,89,0.00,,,0.00,,2013-06-15 12:11:00,
2013-06-15 07:22:00,74.0,71.0,29.92,North,0,0.0,0.0,89,0.00,,,0.00,,2013-06-15 12:22:00,
2013-06-15 08:02:00,75.0,72.0,29.96,North,0,0.0,0.0,89,0.00,,,0.00,,2013-06-15 13:02:00,
2013-06-15 08:11:00,75.0,72.0,29.96,North,0,0.0,0.0,89,0.00,,,0.00,,2013-06-15 13:11:00,
2013-06-15 08:22:00,75.0,72.0,29.96,North,0,0.0,0.0,89,0.00,,,0.00,,2013-06-15 13:22:00,
2013-06-15 08:32:00,77.0,73.0,29.97,North,0,0.0,0.0,87,0.00,,,0.00,,2013-06-15 13:32:00,
2013-06-15 08:43:00,77.0,73.0,29.97,North,0,0.0,0.0,87,0.00,,,0.00,,2013-06-15 13:43:00,
2013-06-15 08:53:00,77.0,73.0,29.97,North,0,0.0,0.0,87,0.00,,,0.00,,2013-06-15 13:53:00,
2013-06-15 09:01:00,77.0,73.0,29.97,North,0,0.0,0.0,87,0.00,,,0.00,,2013-06-15 14:01:00,
2013-06-15 09:12:00,78.0,72.0,29.97,North,0,0.0,0.0,83,0.00,,,0.00,,2013-06-15 14:12:00,
2013-06-15 09:22:00,78.0,72.0,29.97,North,0,0.0,0.0,83,0.00,,,0.00,,2013-06-15 14:22:00,
2013-06-15 09:34:00,78.0,72.0,29.97,North,0,0.0,0.0,83,0.00,,,0.00,,2013-06-15 14:34:00,
2013-06-15 09:43:00,78.0,72.0,29.97,North,0,0.0,0.0,83,0.00,,,0.00,,2013-06-15 14:43:00,
2013-06-15 09:53:00,78.0,72.0,29.97,North,0,0.0,0.0,83,0.00,,,0.00,,2013-06-15 14:53:00,
2013-06-15 10:11:00,82.0,74.0,29.98,North,0,0.0,0.0,77,0.00,,,0.00,,2013-06-15 15:11:00,
2013-06-15 10:22:00,83.0,74.0,29.98,North,0,0.0,0.0,74,0.00,,,0.00,,2013-06-15 15:22:00,
2013-06-15 10:33:00,83.0,74.0,29.98,North,0,0.0,0.0,74,0.00,,,0.00,,2013-06-15 15:33:00,
2013-06-15 10:43:00,83.0,73.0,29.98,North,0,0.0,0.0,72,0.00,,,0.00,,2013-06-15 15:43:00,
2013-06-15 10:53:00,83.0,73.0,29.98,North,0,0.0,0.0,72,0.00,,,0.00,,2013-06-15 15:53:00,
2013-06-15 11:01:00,83.0,73.0,29.98,North,0,0.0,0.0,72,0.00,,,0.00,,2013-06-15 16:01:00,
2013-06-15 11:11:00,83.0,73.0,29.98,North,0,0.0,0.0,72,0.00,,,0.00,,2013-06-15 16:11:00,
2013-06-15 11:22:00,83.0,73.0,29.98,North,0,0.0,0.0,72,0.00,,,0.00,,2013-06-15 16:22:00,
2013-06-15 11:33:00,83.0,73.0,29.99,North,0,0.0,0.0,71,0.00,,,0.00,,2013-06-15 16:33:00,
2013-06-15 11:43:00,83.0,73.0,29.99,North,0,0.0,0.0,71,0.00,,,0.00,,2013-06-15 16:43:00,
2013-06-15 11:53:00,83.0,73.0,29.99,North,0,0.0,0.0,71,0.00,,,0.00,,2013-06-15 16:53:00,
2013-06-15 12:02:00,83.0,73.0,29.99,North,0,0.0,0.0,71,0.00,,,0.00,,2013-06-15 17:02:00,
2013-06-15 12:12:00,83.0,72.0,29.98,North,0,0.0,0.0,69,0.00,,,0.00,,2013-06-15 17:12:00,
2013-06-15 12:21:00,83.0,72.0,29.98,North,0,0.0,0.0,69,0.00,,,0.00,,2013-06-15 17:21:00,
2013-06-15 12:32:00,82.0,71.0,29.97,North,0,0.0,0.0,70,0.00,,,0.00,,2013-06-15 17:32:00,
2013-06-15 12:43:00,82.0,71.0,29.97,North,0,0.0,0.0,70,0.00,,,0.00,,2013-06-15 17:43:00,
2013-06-15 12:52:00,82.0,71.0,29.97,North,0,0.0,0.0,70,0.00,,,0.00,,2013-06-15 17:52:00,
2013-06-15 13:01:00,82.0,71.0,29.97,North,0,0.0,0.0,70,0.00,,,0.00,,2013-06-15 18:01:00,
2013-06-15 13:12:00,82.0,71.0,29.97,North,0,0.0,0.0,70,0.00,,,0.00,,2013-06-15 18:12:00,
2013-06-15 13:33:00,82.0,72.0,29.96,North,0,0.0,0.0,72,0.00,,,0.00,,2013-06-15 18:33:00,
2013-06-15 13:43:00,82.0,72.0,29.97,North,0,0.0,0.0,71,0.00,,,0.00,,2013-06-15 18:43:00,
2013-06-15 13:53:00,82.0,72.0,29.97,North,0,0.0,0.0,71,0.00,,,0.00,,2013-06-15 18:53:00,
2013-06-15 14:01:00,83.0,73.0,29.97,North,0,0.0,0.0,71,0.00,,,0.00,,2013-06-15 19:01:00,
2013-06-15 14:11:00,83.0,72.0,29.96,North,0,0.0,0.0,70,0.00,,,0.00,,2013-06-15 19:11:00,
2013-06-15 14:22:00,83.0,72.0,29.96,North,0,0.0,0.0,70,0.00,,,0.00,,2013-06-15 19:22:00,
2013-06-15 14:33:00,83.0,73.0,29.96,North,0,0.0,0.0,71,0.00,,,0.00,,2013-06-15 19:33:00,
2013-06-15 14:43:00,82.0,72.0,29.96,North,0,0.0,0.0,71,0.00,,,0.00,,2013-06-15 19:43:00,
2013-06-15 14:52:00,82.0,72.0,29.95,North,0,0.0,0.0,73,0.00,,,0.00,,2013-06-15 19:52:00,
2013-06-15 15:02:00,82.0,72.0,29.95,North,0,0.0,0.0,72,0.00,,,0.00,,2013-06-15 20:02:00,
2013-06-15 15:11:00,83.0,73.0,29.95,North,0,0.0,0.0,72,0.00,,,0.00,,2013-06-15 20:11:00,
2013-06-15 15:22:00,83.0,73.0,29.95,North,0,0.0,0.0,72,0.00,,,0.00,,2013-06-15 20:22:00,
2013-06-15 15:33:00,83.0,73.0,29.95,North,0,0.0,0.0,72,0.00,,,0.00,,2013-06-15 20:33:00,
2013-06-15 15:43:00,87.0,74.0,29.95,North,0,0.0,0.0,65,0.00,,,0.00,,2013-06-15 20:43:00,
2013-06-15 16:01:00,88.0,73.0,29.94,North,0,0.0,0.0,62,0.00,,,0.00,,2013-06-15 21:01:00,
2013-06-15 16:42:00,89.0,73.0,29.93,North,0,0.0,0.0,59,0.00,,,0.00,,2013-06-15 21:42:00,
2013-06-15 17:11:00,88.0,72.0,29.92,North,0,0.0,0.0,60,0.00,,,0.00,,2013-06-15 22:11:00,
2013-06-15 17:22:00,88.0,73.0,29.92,North,0,0.0,0.0,61,0.00,,,0.00,,2013-06-15 22:22:00,
2013-06-15 17:32:00,88.0,73.0,29.92,North,0,0.0,0.0,61,0.00,,,0.00,,2013-06-15 22:32:00,
2013-06-15 17:42:00,88.0,73.0,29.92,North,0,0.0,0.0,61,0.00,,,0.00,,2013-06-15 22:42:00,
2013-06-15 18:02:00,90.0,72.0,29.91,North,0,0.0,0.0,56,0.00,,,0.00,,2013-06-15 23:02:00,
2013-06-15 18:11:00,90.0,72.0,29.91,North,0,0.0,0.0,56,0.00,,,0.00,,2013-06-15 23:11:00,
2013-06-15 18:22:00,89.0,73.0,29.91,North,0,0.0,0.0,59,0.00,,,0.00,,2013-06-15 23:22:00,
2013-06-15 18:33:00,89.0,73.0,29.91,North,0,0.0,0.0,59,0.00,,,0.00,,2013-06-15 23:33:00,
2013-06-15 18:41:00,86.0,72.0,29.90,North,0,0.0,0.0,63,0.00,,,0.00,,2013-06-15 23:41:00,
2013-06-15 18:42:00,89.0,73.0,29.91,North,0,0.0,0.0,59,0.00,,,0.00,,2013-06-15 23:42:00,
2013-06-15 18:53:00,89.0,73.0,29.91,North,0,0.0,0.0,59,0.00,,,0.00,,2013-06-15 23:53:00,
2013-06-15 19:01:00,86.0,72.0,29.90,North,0,0.0,0.0,63,0.00,,,0.00,,2013-06-16 00:01:00,
2013-06-15 19:11:00,86.0,72.0,29.90,North,0,0.0,0.0,63,0.00,,,0.00,,2013-06-16 00:11:00,
2013-06-15 19:22:00,86.0,72.0,29.90,North,0,0.0,0.0,63,0.00,,,0.00,,2013-06-16 00:22:00,
2013-06-15 19:33:00,86.0,72.0,29.90,North,0,0.0,0.0,63,0.00,,,0.00,,2013-06-16 00:33:00,
2013-06-15 20:11:00,85.0,72.0,29.90,North,0,0.0,0.0,65,0.00,,,0.00,,2013-06-16 01:11:00,
2013-06-15 20:22:00,84.0,72.0,29.90,North,0,0.0,0.0,67,0.00,,,0.00,,2013-06-16 01:22:00,
2013-06-15 20:33:00,83.0,71.0,29.90,North,0,0.0,0.0,68,0.00,,,0.00,,2013-06-16 01:33:00,
2013-06-15 20:42:00,83.0,71.0,29.90,North,0,0.0,0.0,68,0.00,,,0.00,,2013-06-16 01:42:00,
2013-06-15 20:53:00,82.0,72.0,29.90,North,0,0.0,0.0,71,0.00,,,0.00,,2013-06-16 01:53:00,
2013-06-15 21:01:00,80.0,71.0,29.90,North,0,0.0,0.0,73,0.00,,,0.00,,2013-06-16 02:01:00,
2013-06-15 21:12:00,80.0,71.0,29.90,North,0,0.0,0.0,74,0.00,,,0.00,,2013-06-16 02:12:00,
2013-06-15 21:22:00,78.0,69.0,29.90,North,0,0.0,0.0,75,0.00,,,0.00,,2013-06-16 02:22:00,
2013-06-15 21:33:00,77.0,69.0,29.90,North,0,0.0,0.0,77,0.00,,,0.00,,2013-06-16 02:33:00,
2013-06-15 21:43:00,77.0,70.0,29.91,North,0,0.0,0.0,78,0.00,,,0.00,,2013-06-16 02:43:00,
2013-06-15 21:53:00,77.0,70.0,29.91,North,0,0.0,0.0,78,0.00,,,0.00,,2013-06-16 02:53:00,
2013-06-15 22:02:00,77.0,70.0,29.91,North,0,0.0,0.0,78,0.00,,,0.00,,2013-06-16 03:02:00,
2013-06-15 22:11:00,77.0,70.0,29.91,North,0,0.0,0.0,78,0.00,,,0.00,,2013-06-16 03:11:00,
2013-06-15 22:22:00,77.0,70.0,29.91,North,0,0.0,0.0,78,0.00,,,0.00,,2013-06-16 03:22:00,
2013-06-15 23:12:00,74.0,68.0,29.94,North,0,0.0,0.0,82,0.00,,,0.00,,2013-06-16 04:12:00,
2013-06-15 23:23:00,74.0,68.0,29.94,North,0,0.0,0.0,82,0.00,,,0.00,,2013-06-16 04:23:00,
2013-06-15 23:33:00,74.0,68.0,29.94,North,0,0.0,0.0,82,0.00,,,0.00,,2013-06-16 04:33:00,
2013-06-15 23:42:00,74.0,68.0,29.94,North,0,0.0,0.0,82,0.00,,,0.00,,2013-06-16 04:42:00,
2013-06-15 23:53:00,74.0,69.0,29.94,North,0,0.0,0.0,85,0.00,,,0.00,,2013-06-16 04:53:00,